ARIANE 1 DEB, 25837

Orbit data source: Space-Track

ARIANE 1 DEB, 25837 is space debris in LEO originally from a launch on Mon, 24 Dec 1979 UTC launched from the French Guiana (FRGUI). Debris objects in space refer to the collection of defunct objects orbiting the Earth. Examples of debris include non-operational satellites, rocket bodies, and fragments generated from explosions, collisions, or faulty payload assembly.

Loading next visibility...
Identifier
25837, 1979-104L
Orbit
LEO
Country
Flag of FRFR
Related business
Manufacturer
Unknown
Mission
Spacecraft
Bus & Motor
Unknown
Mass
Unknown
Launch date (UTC)
1979-12-24 (46 years ago)
Launch vehicle
Unknown
Launch site
French Guiana (FRGUI)
Object type
Payload
Rocket body
Debris
Shape & HBR
Unknown shape, 0.1 m
Radar Cross Section
Small (<0.1 m²)

Expand to show TLE details & history
Last TLE update: 1 day ago

TLE from 1 day ago
0 ARIANE 1 DEB
1 25837U 79104L   26061.65477461  .00205425 -77604-5  38660-2 0  9994
2 25837  17.9457 100.4318 1370626 307.9835 161.8894 12.83786561 88478
Epoch: 2026-03-02T15:42Z
TLE epoch observation values (Epoch: 2026-03-02T15:42:52.526Z)
Latitude
16.40548°
Longitude
179.42696°
Altitude
2,338.235 km
Speed
6.306 km/s
True Right ascension
14h 22m 21s
True Declination
16° 19' 46"
Sunlit
Object was in daylight at epoch
Visualization orbit readout
Latitude
Unknown
Longitude
Unknown
Altitude
Unknown
Speed
Unknown
Apparent Right ascension
Unknown
Apparent Declination
Unknown
Sunlit
N/A
Visualization observer readout
Local Sidereal Time
22:44:01
Azimuth
Unknown
Elevation
Unknown
Doppler factor
Unknown
Orbital elements
Apogee altitude
2,388.014 km
Perigee altitude
274.654 km
Semi-major axis
7,709.471 km
Eccentricity
0.13706
Inclination
17.9457°
RAAN
100.4318°
Arg. of periapsis
307.9835°
True anomaly
166.08141°
Mean anomaly
161.8894°
Eccentric anomaly
164.04772°
Mean motion
3.20632 °/min
Orbital period
112.28 mins
BSTAR
0.003866
Loading maneuver chart data...
Computing Atmospheric mass density...
Loading historical data...
Loading historical data...
Loading historical data...
Loading historical data...
Loading historical data...
Loading historical data...
Loading historical data...

Documentation

Showing up to 5 results
|